Terug naar catalogus

STARLINK-35647

ActiefCommunicatieVLEO
NORAD 66388·PAYLOAD·🇺🇸 United States

Gelanceerd Nov 8, 2025 vanaf Cape Canaveral Space Force Station

Loading…

Volgende Passages (komende 24 uur)

TLE

VersSource: CelesTrak SupGP

Epoch: Sep 15, 2026, 03:56 UTC

1 66388C 25257J   26258.16437500 -.00010020  00000+0 -29616-3 0  2580
2 66388  53.1592  54.9649 0001199  89.1132 164.5043 15.34382064    19

Volg STARLINK-35647 in realtime met AllMySat

Download on the App Store